QPF
0.00 0.00 0.00 0.00 0.00 0.00 0.00 0.00 0.00 0.00 0.00 0.00 0.00 0.00 0.00 0.00 0.00 0.00 0.00 0.00 0.00 0.00 0.00 0.00 0.00 0.00 0.00 0.00 0.00 0.00 0.00 0.00 0.00 0.00 0.00 0.00 0.00 0.00
0.00 0.00 0.00 0.00 0.00 0.00 0.00 0.00 0.00 0.00 0.00 0.00 0.00 0.00 0.00 0.00 0.00 0.00 0.00 0.00 0.00 0.00 0.00 0.00 0.00 0.00 0.00 0.00 0.00 0.00 0.00 0.00 0.00 0.00 0.00 0.00 0.00 0.00
0.00 0.00 0.00 0.00 0.00 0.00 0.00 0.00 0.00 0.00 0.00 0.00 0.00 0.00 0.00 0.00 0.00 0.00 0.00 0.00 0.00 0.00 0.00 0.00 0.00 0.00 0.00 0.00 0.00 0.00 0.00 0.00 0.00 0.00 0.00 0.00 0.00 0.00
0.01 0.01 0.00 0.00 0.00 0.00 0.00 0.00 0.00 0.00 0.00 0.00 0.00 0.00 0.00 0.00 0.00 0.00 0.00 0.00 0.00 0.00 0.00 0.00 0.00 0.00 0.00 0.00 0.00 0.00 0.00 0.00 0.00 0.00 0.00 0.00 0.00 0.00
0.03 0.03 0.03 0.02 0.01 0.00 0.00 0.00 0.00 0.00 0.00 0.00 0.00 0.00 0.00 0.00 0.00 0.00 0.00 0.00 0.00 0.00 0.00 0.00 0.00 0.00 0.00 0.00 0.00 0.00 0.00 0.00 0.00 0.00 0.00 0.00 0.00 0.00
0.07 0.07 0.06 0.04 0.02 0.01 0.00 0.00 0.00 0.00 0.00 0.00 0.01 0.01 0.01 0.01 0.01 0.01 0.00 0.00 0.00 0.00 0.00 0.00 0.00 0.00 0.00 0.00 0.00 0.00 0.00 0.00 0.00 0.00 0.00 0.00 0.00 0.00
0.12 0.10 0.08 0.06 0.04 0.02 0.00 0.00 0.00 0.00 0.00 0.00 0.01 0.01 0.01 0.02 0.02 0.02 0.02 0.01 0.01 0.01 0.00 0.00 0.00 0.00 0.00 0.00 0.00 0.00 0.00 0.00 0.00 0.00 0.00 0.00 0.00 0.00
0.11 0.09 0.07 0.05 0.04 0.03 0.02 0.01 0.00 0.00 0.01 0.01 0.01 0.01 0.01 0.02 0.03 0.04 0.04 0.03 0.03 0.02 0.01 0.00 0.00 0.00 0.00 0.00 0.00 0.00 0.00 0.00 0.00 0.00 0.00 0.00 0.00 0.00
0.04 0.04 0.03 0.02 0.02 0.01 0.01 0.01 0.01 0.01 0.01 0.02 0.04 0.03 0.02 0.02 0.02 0.03 0.04 0.05 0.05 0.03 0.01 0.00 0.00 0.00 0.00 0.00 0.00 0.00 0.00 0.00 0.00 0.00 0.00 0.00 0.00 0.00
0.01 0.01 0.01 0.01 0.01 0.00 0.00 0.00 0.00 0.00 0.01 0.02 0.04 0.06 0.06 0.05 0.04 0.04 0.04 0.05 0.04 0.02 0.01 0.00 0.00 0.00 0.00 0.00 0.00 0.00 0.00 0.00 0.00 0.00 0.00 0.00 0.00 0.00
0.00 0.00 0.00 0.00 0.00 0.00 0.00 0.00 0.00 0.00 0.00 0.00 0.01 0.03 0.03 0.04 0.03 0.03 0.03 0.03 0.02 0.01 0.00 0.00 0.00 0.00 0.00 0.00 0.00 0.00 0.00 0.00 0.00 0.00 0.00 0.00 0.00 0.00
0.00 0.00 0.00 0.00 0.00 0.00 0.00 0.00 0.00 0.00 0.00 0.00 0.00 0.00 0.00 0.01 0.01 0.01 0.01 0.01 0.01 0.00 0.00 0.00 0.00 0.00 0.00 0.00 0.00 0.00 0.00 0.00 0.00 0.00 0.00 0.00 0.00 0.00
0.00 0.00 0.00 0.00 0.00 0.00 0.00 0.00 0.00 0.00 0.00 0.00 0.00 0.00 0.00 0.00 0.00 0.00 0.00 0.00 0.00 0.00 0.00 0.00 0.00 0.00 0.00 0.00 0.00 0.00 0.00 0.00 0.00 0.00 0.00 0.00 0.00 0.00
0.00 0.00 0.00 0.00 0.00 0.00 0.00 0.00 0.00 0.00 0.00 0.00 0.00 0.00 0.00 0.00 0.00 0.00 0.00 0.00 0.00 0.00 0.00 0.00 0.00 0.00 0.00 0.00 0.00 0.00 0.00 0.00 0.00 0.00 0.00 0.00 0.00 0.00
0.01 0.00 0.00 0.00 0.00 0.00 0.00 0.00 0.00 0.00 0.00 0.00 0.00 0.00 0.00 0.00 0.00 0.00 0.00 0.00 0.00 0.00 0.00 0.00 0.00 0.00 0.00 0.00 0.00 0.00 0.00 0.00 0.00 0.00 0.00 0.00 0.00 0.00
0.02 0.02 0.01 0.00 0.00 0.00 0.00 0.00 0.00 0.00 0.00 0.00 0.00 0.00 0.00 0.00 0.00 0.00 0.00 0.00 0.00 0.00 0.00 0.00 0.00 0.00 0.00 0.00 0.00 0.00 0.00 0.00 0.00 0.00 0.00 0.00 0.00 0.00
0.01 0.01 0.01 0.00 0.00 0.00 0.00 0.00 0.00 0.00 0.00 0.00 0.00 0.00 0.00 0.00 0.00 0.00 0.00 0.00 0.00 0.00 0.00 0.00 0.00 0.00 0.00 0.00 0.00 0.00 0.00 0.00 0.00 0.00 0.00 0.00 0.00 0.00
0.01 0.01 0.01 0.00 0.00 0.00 0.00 0.00 0.00 0.00 0.00 0.00 0.00 0.00 0.00 0.00 0.00 0.00 0.00 0.00 0.00 0.00 0.00 0.00 0.00 0.00 0.00 0.00 0.00 0.00 0.00 0.00 0.00 0.00 0.00 0.00 0.00 0.00
0.00 0.00 0.00 0.00 0.00 0.00 0.00 0.00 0.00 0.00 0.00 0.00 0.00 0.00 0.00 0.00 0.00 0.00 0.00 0.00 0.00 0.00 0.00 0.00 0.00 0.00 0.00 0.00 0.00 0.00 0.00 0.00 0.00 0.00 0.00 0.00 0.00 0.00
0.00 0.00 0.00 0.00 0.00 0.00 0.00 0.00 0.00 0.00 0.00 0.00 0.00 0.00 0.00 0.00 0.00 0.00 0.00 0.00 0.00 0.00 0.00 0.00 0.00 0.00 0.01 0.01 0.01 0.00 0.00 0.00 0.00 0.00 0.00 0.00 0.00 0.00
0.00 0.00 0.00 0.00 0.00 0.00 0.00 0.00 0.00 0.00 0.00 0.00 0.00 0.00 0.00 0.00 0.00 0.00 0.00 0.00 0.00 0.00 0.00 0.00 0.00 0.00 0.00 0.01 0.01 0.00 0.00 0.00 0.00 0.00 0.00 0.00 0.00 0.00
0.00 0.00 0.00 0.00 0.00 0.00 0.00 0.00 0.00 0.00 0.00 0.00 0.00 0.00 0.00 0.00 0.00 0.00 0.00 0.00 0.00 0.00 0.00 0.00 0.00 0.00 0.00 0.01 0.01 0.00 0.00 0.00 0.00 0.00 0.00 0.00 0.01 0.01
0.00 0.00 0.00 0.00 0.00 0.00 0.00 0.00 0.00 0.00 0.00 0.00 0.00 0.00 0.00 0.00 0.00 0.00 0.00 0.00 0.00 0.00 0.00 0.00 0.00 0.00 0.00 0.00 0.01 0.00 0.00 0.00 0.00 0.00 0.00 0.00 0.00 0.00
MSLP
1008.26 1008.65 1009.02 1009.35 1009.62 1009.83 1009.97 1010.07 1010.14 1010.22 1010.31 1010.43 1010.59 1010.79 1011.02 1011.28 1011.55 1011.83 1012.11 1012.40 1012.69 1012.99 1013.29 1013.59 1013.87 1014.13 1014.34 1014.51 1014.62 1014.68 1014.70 1014.70 1014.68 1014.67 1014.67 1014.68 1014.70 1014.72
1008.24 1008.60 1008.95 1009.25 1009.51 1009.70 1009.85 1009.97 1010.06 1010.16 1010.27 1010.41 1010.58 1010.77 1010.99 1011.22 1011.47 1011.72 1012.00 1012.29 1012.60 1012.93 1013.28 1013.62 1013.95 1014.24 1014.48 1014.67 1014.78 1014.83 1014.84 1014.82 1014.79 1014.77 1014.76 1014.76 1014.78 1014.79
1008.36 1008.68 1008.99 1009.25 1009.48 1009.65 1009.79 1009.90 1010.01 1010.12 1010.25 1010.39 1010.56 1010.74 1010.93 1011.14 1011.36 1011.60 1011.87 1012.17 1012.50 1012.86 1013.25 1013.63 1014.00 1014.32 1014.59 1014.78 1014.89 1014.94 1014.94 1014.91 1014.88 1014.85 1014.84 1014.84 1014.86 1014.86
1008.66 1008.93 1009.18 1009.40 1009.58 1009.72 1009.84 1009.94 1010.04 1010.16 1010.28 1010.42 1010.57 1010.73 1010.90 1011.08 1011.28 1011.50 1011.76 1012.06 1012.41 1012.80 1013.22 1013.63 1014.03 1014.37 1014.64 1014.84 1014.95 1014.99 1014.98 1014.94 1014.90 1014.88 1014.88 1014.89 1014.91 1014.92
1009.16 1009.38 1009.56 1009.72 1009.84 1009.94 1010.02 1010.11 1010.19 1010.29 1010.41 1010.53 1010.66 1010.80 1010.94 1011.09 1011.26 1011.47 1011.72 1012.03 1012.39 1012.79 1013.22 1013.64 1014.04 1014.39 1014.66 1014.84 1014.94 1014.97 1014.95 1014.91 1014.87 1014.85 1014.86 1014.89 1014.92 1014.94
1009.85 1009.99 1010.11 1010.20 1010.26 1010.31 1010.35 1010.40 1010.46 1010.54 1010.63 1010.73 1010.84 1010.95 1011.06 1011.20 1011.35 1011.55 1011.79 1012.09 1012.45 1012.85 1013.28 1013.70 1014.09 1014.41 1014.66 1014.82 1014.89 1014.91 1014.88 1014.83 1014.80 1014.79 1014.80 1014.84 1014.88 1014.90
1010.67 1010.74 1010.78 1010.80 1010.80 1010.80 1010.80 1010.81 1010.84 1010.88 1010.95 1011.02 1011.11 1011.19 1011.29 1011.41 1011.56 1011.75 1011.99 1012.29 1012.64 1013.03 1013.44 1013.84 1014.20 1014.49 1014.70 1014.82 1014.87 1014.85 1014.81 1014.75 1014.71 1014.70 1014.72 1014.77 1014.80 1014.82
1011.54 1011.54 1011.51 1011.47 1011.42 1011.37 1011.32 1011.30 1011.29 1011.31 1011.35 1011.40 1011.46 1011.54 1011.63 1011.75 1011.89 1012.08 1012.33 1012.63 1012.97 1013.35 1013.73 1014.09 1014.41 1014.66 1014.83 1014.91 1014.91 1014.87 1014.80 1014.73 1014.67 1014.65 1014.66 1014.69 1014.71 1014.71
1012.37 1012.31 1012.24 1012.15 1012.06 1011.97 1011.89 1011.84 1011.81 1011.80 1011.82 1011.86 1011.92 1011.99 1012.08 1012.20 1012.36 1012.56 1012.81 1013.11 1013.44 1013.80 1014.15 1014.48 1014.75 1014.95 1015.07 1015.11 1015.07 1014.99 1014.89 1014.79 1014.72 1014.67 1014.65 1014.64 1014.63 1014.59
1013.10 1013.00 1012.89 1012.78 1012.68 1012.57 1012.48 1012.42 1012.38 1012.37 1012.38 1012.41 1012.47 1012.55 1012.65 1012.78 1012.96 1013.17 1013.42 1013.72 1014.04 1014.38 1014.70 1014.98 1015.21 1015.36 1015.44 1015.43 1015.36 1015.25 1015.11 1014.98 1014.86 1014.77 1014.70 1014.64 1014.58 1014.48
1013.68 1013.57 1013.46 1013.36 1013.26 1013.16 1013.09 1013.04 1013.01 1013.00 1013.02 1013.06 1013.13 1013.22 1013.33 1013.48 1013.67 1013.88 1014.14 1014.43 1014.73 1015.04 1015.32 1015.57 1015.75 1015.86 1015.90 1015.86 1015.75 1015.60 1015.44 1015.26 1015.10 1014.96 1014.82 1014.69 1014.56 1014.39
1014.12 1014.03 1013.94 1013.87 1013.80 1013.75 1013.71 1013.69 1013.69 1013.71 1013.75 1013.81 1013.89 1014.00 1014.12 1014.28 1014.47 1014.68 1014.92 1015.19 1015.46 1015.73 1015.97 1016.17 1016.32 1016.39 1016.39 1016.32 1016.18 1016.01 1015.81 1015.60 1015.38 1015.18 1014.98 1014.77 1014.55 1014.31
1014.46 1014.40 1014.36 1014.33 1014.32 1014.32 1014.34 1014.37 1014.42 1014.48 1014.55 1014.64 1014.74 1014.86 1014.99 1015.15 1015.32 1015.52 1015.73 1015.95 1016.18 1016.40 1016.59 1016.74 1016.83 1016.87 1016.84 1016.74 1016.58 1016.39 1016.16 1015.91 1015.65 1015.38 1015.11 1014.83 1014.54 1014.22
1014.76 1014.73 1014.74 1014.77 1014.83 1014.90 1014.98 1015.07 1015.17 1015.28 1015.39 1015.51 1015.64 1015.76 1015.90 1016.04 1016.19 1016.35 1016.51 1016.68 1016.84 1016.99 1017.12 1017.21 1017.25 1017.24 1017.18 1017.06 1016.88 1016.66 1016.41 1016.13 1015.83 1015.51 1015.18 1014.84 1014.48 1014.09
1015.07 1015.08 1015.13 1015.21 1015.32 1015.46 1015.60 1015.76 1015.92 1016.08 1016.23 1016.38 1016.53 1016.66 1016.79 1016.91 1017.02 1017.13 1017.23 1017.32 1017.41 1017.48 1017.53 1017.56 1017.54 1017.49 1017.39 1017.24 1017.04 1016.80 1016.52 1016.21 1015.87 1015.51 1015.13 1014.73 1014.32 1013.89
1015.44 1015.47 1015.54 1015.66 1015.82 1016.00 1016.20 1016.40 1016.61 1016.81 1017.01 1017.19 1017.36 1017.49 1017.61 1017.70 1017.78 1017.82 1017.86 1017.88 1017.88 1017.87 1017.84 1017.78 1017.71 1017.60 1017.45 1017.27 1017.04 1016.78 1016.47 1016.13 1015.76 1015.36 1014.93 1014.50 1014.05 1013.59
1015.91 1015.92 1016.00 1016.14 1016.31 1016.51 1016.74 1016.97 1017.22 1017.46 1017.68 1017.89 1018.07 1018.21 1018.32 1018.39 1018.42 1018.41 1018.38 1018.33 1018.25 1018.16 1018.05 1017.92 1017.78 1017.61 1017.42 1017.19 1016.92 1016.62 1016.28 1015.90 1015.49 1015.05 1014.59 1014.12 1013.63 1013.15
1016.45 1016.45 1016.51 1016.63 1016.79 1016.99 1017.22 1017.47 1017.72 1017.98 1018.22 1018.44 1018.62 1018.77 1018.87 1018.92 1018.92 1018.88 1018.80 1018.68 1018.54 1018.38 1018.20 1018.01 1017.80 1017.57 1017.32 1017.04 1016.72 1016.37 1015.98 1015.56 1015.10 1014.61 1014.11 1013.60 1013.08 1012.57
1017.04 1017.01 1017.04 1017.13 1017.26 1017.44 1017.64 1017.88 1018.12 1018.37 1018.61 1018.83 1019.01 1019.16 1019.25 1019.29 1019.28 1019.21 1019.10 1018.94 1018.76 1018.55 1018.31 1018.07 1017.80 1017.51 1017.20 1016.87 1016.49 1016.09 1015.64 1015.16 1014.64 1014.10 1013.54 1012.97 1012.42 1011.87
1017.62 1017.57 1017.58 1017.63 1017.72 1017.85 1018.02 1018.21 1018.42 1018.64 1018.85 1019.05 1019.23 1019.36 1019.45 1019.48 1019.46 1019.39 1019.26 1019.09 1018.88 1018.64 1018.38 1018.09 1017.78 1017.45 1017.09 1016.70 1016.26 1015.79 1015.28 1014.73 1014.15 1013.54 1012.92 1012.30 1011.69 1011.09
1018.15 1018.10 1018.08 1018.10 1018.14 1018.22 1018.33 1018.46 1018.61 1018.78 1018.95 1019.11 1019.25 1019.37 1019.44 1019.47 1019.45 1019.37 1019.25 1019.08 1018.87 1018.63 1018.35 1018.05 1017.72 1017.35 1016.95 1016.51 1016.03 1015.50 1014.92 1014.31 1013.66 1012.99 1012.30 1011.62 1010.94 1010.29
1018.57 1018.53 1018.50 1018.49 1018.49 1018.51 1018.55 1018.60 1018.68 1018.77 1018.87 1018.98 1019.07 1019.15 1019.20 1019.22 1019.19 1019.12 1019.01 1018.86 1018.66 1018.43 1018.17 1017.87 1017.53 1017.15 1016.73 1016.26 1015.74 1015.17 1014.55 1013.89 1013.19 1012.46 1011.72 1010.98 1010.25 1009.55
1018.82 1018.81 1018.78 1018.75 1018.71 1018.66 1018.63 1018.60 1018.58 1018.59 1018.60 1018.63 1018.66 1018.69 1018.70 1018.69 1018.66 1018.59 1018.49 1018.36 1018.19 1017.98 1017.74 1017.46 1017.14 1016.78 1016.36 1015.89 1015.37 1014.78 1014.15 1013.46 1012.74 1011.98 1011.21 1010.44 1009.68 1008.93
Thickness
5470 5474 5478 5482 5486 5491 5496 5499 5500 5501 5506 5513 5519 5524 5529 5532 5536 5538 5539 5541 5542 5543 5545 5547 5549 5552 5555 5558 5561 5565 5568 5572 5575 5578 5582 5585 5590 5594
5452 5456 5460 5464 5469 5474 5479 5483 5487 5489 5491 5497 5502 5508 5512 5515 5519 5522 5524 5525 5526 5528 5530 5532 5534 5537 5540 5543 5546 5550 5553 5557 5560 5564 5568 5571 5576 5580
5437 5441 5445 5449 5453 5458 5464 5469 5472 5475 5478 5482 5486 5492 5496 5500 5502 5505 5508 5510 5511 5513 5515 5517 5520 5523 5526 5529 5532 5536 5539 5542 5546 5550 5553 5557 5561 5566
5422 5426 5429 5434 5437 5442 5448 5453 5457 5462 5465 5468 5471 5475 5481 5485 5488 5489 5492 5494 5496 5498 5500 5502 5505 5508 5512 5515 5518 5521 5525 5528 5532 5535 5539 5543 5547 5551
5406 5410 5413 5417 5420 5424 5430 5435 5440 5447 5451 5455 5458 5460 5463 5468 5470 5473 5475 5477 5480 5482 5484 5487 5490 5493 5497 5500 5503 5506 5510 5514 5518 5521 5525 5529 5533 5537
5387 5392 5397 5401 5404 5408 5413 5418 5424 5430 5436 5441 5444 5446 5448 5452 5455 5456 5457 5459 5461 5464 5468 5471 5474 5477 5481 5485 5488 5492 5496 5500 5504 5509 5512 5516 5520 5524
5368 5373 5379 5385 5391 5395 5399 5403 5408 5414 5420 5426 5431 5433 5434 5436 5439 5442 5441 5441 5441 5445 5450 5454 5459 5462 5465 5468 5472 5477 5482 5487 5491 5496 5500 5504 5508 5513
5348 5354 5360 5365 5370 5378 5385 5390 5395 5398 5402 5407 5412 5416 5416 5419 5422 5426 5426 5426 5426 5429 5434 5437 5443 5446 5449 5452 5457 5462 5468 5473 5478 5483 5488 5492 5497 5502
5331 5336 5342 5348 5352 5358 5366 5372 5377 5382 5385 5387 5389 5391 5393 5397 5404 5407 5409 5411 5411 5412 5418 5420 5425 5429 5433 5437 5443 5449 5453 5458 5464 5470 5475 5480 5485 5490
5315 5320 5325 5331 5338 5343 5350 5354 5357 5362 5365 5367 5368 5370 5373 5377 5382 5386 5389 5390 5391 5393 5400 5403 5406 5411 5417 5422 5429 5434 5438 5444 5451 5457 5462 5467 5473 5478
5301 5305 5310 5315 5324 5328 5333 5336 5339 5342 5347 5350 5351 5353 5356 5360 5364 5367 5370 5374 5375 5375 5380 5386 5389 5394 5401 5409 5415 5420 5425 5432 5438 5444 5449 5455 5462 5468
5286 5290 5296 5301 5307 5311 5315 5320 5322 5324 5327 5329 5330 5332 5335 5339 5343 5346 5351 5356 5360 5361 5363 5369 5374 5379 5387 5395 5401 5408 5414 5420 5426 5432 5438 5444 5450 5456
5271 5274 5280 5286 5291 5296 5300 5304 5307 5308 5309 5311 5312 5314 5317 5320 5323 5327 5332 5337 5342 5345 5349 5355 5360 5366 5372 5380 5388 5396 5402 5407 5413 5420 5426 5432 5438 5443
5257 5260 5265 5271 5276 5280 5284 5289 5290 5291 5293 5294 5295 5297 5300 5303 5307 5311 5316 5320 5325 5331 5336 5342 5348 5353 5358 5363 5372 5381 5387 5394 5400 5407 5413 5420 5425 5431
5242 5247 5252 5256 5259 5262 5268 5270 5271 5273 5275 5277 5278 5280 5283 5288 5293 5298 5303 5308 5313 5319 5324 5329 5335 5341 5346 5351 5358 5364 5371 5380 5387 5393 5400 5406 5413 5420
5226 5231 5236 5240 5241 5245 5247 5249 5253 5255 5257 5259 5260 5264 5269 5274 5278 5283 5288 5293 5299 5304 5310 5316 5322 5328 5334 5341 5347 5354 5359 5364 5374 5381 5389 5396 5402 5408
5208 5212 5216 5220 5222 5225 5227 5230 5233 5235 5238 5241 5244 5248 5253 5257 5262 5267 5273 5278 5283 5288 5294 5302 5309 5317 5324 5330 5337 5346 5352 5357 5364 5370 5378 5385 5391 5396
5187 5189 5193 5198 5202 5205 5208 5211 5214 5218 5221 5225 5228 5232 5236 5241 5246 5251 5258 5263 5269 5275 5281 5289 5296 5305 5313 5323 5329 5335 5342 5349 5356 5361 5367 5373 5382 5386
5162 5164 5167 5173 5178 5183 5187 5191 5195 5200 5204 5208 5212 5215 5221 5226 5231 5237 5244 5250 5257 5264 5271 5277 5285 5293 5299 5308 5317 5324 5330 5337 5343 5349 5356 5362 5371 5378
5135 5139 5144 5149 5154 5160 5165 5170 5175 5180 5185 5190 5195 5199 5204 5210 5217 5223 5230 5237 5245 5253 5260 5266 5273 5280 5287 5296 5303 5311 5318 5324 5331 5338 5345 5353 5360 5368
5108 5114 5120 5126 5132 5138 5143 5149 5155 5160 5166 5172 5177 5183 5189 5195 5201 5208 5216 5224 5233 5239 5247 5255 5263 5270 5277 5284 5290 5300 5309 5315 5321 5328 5334 5341 5350 5358
5085 5089 5095 5102 5108 5115 5121 5127 5134 5140 5146 5152 5159 5166 5173 5180 5187 5195 5202 5210 5218 5226 5234 5243 5251 5258 5265 5273 5281 5289 5299 5307 5313 5319 5325 5330 5336 5347
5067 5069 5073 5078 5085 5091 5098 5105 5112 5120 5127 5134 5141 5148 5156 5164 5172 5180 5189 5197 5205 5214 5223 5231 5239 5246 5254 5263 5270 5279 5288 5296 5303 5312 5319 5325 5331 5339